Showing default

LEMUR 1, 40044

Orbit data source: Space-Track

LEMUR 1, 40044 is a payload satellite owned by NanoSatisfi (US) in SSO that was launched on Thu, 19 Jun 2014 UTC via a DNEPR launch vehicle from the Orenburg, Russia (OREN). Payload-class satellites include a variety of spacecraft equipped with specific instruments for various scientific and technological missions. These include communications satellites like Starlink; space stations such as the ISS; scientific satellites like the Hubble; Earth observation satellites from companies like Planet Labs, Umbra, and HawkEye 360; GPS; miniature CubeSats for education and research; and military/defense satellites.

Loading next visibility...
Identifier
40044, 2014-033AL
Orbit
SSO
Country
Flag of USUS
Related business
Manufacturer
NanoSatisfi
Mission
Operational Commercial Technology
Bus & Motor
CUBESAT 3U, Unknown motor
Mass
~4 kg wet, ~4 kg dry
Launch date (UTC)
2014-06-19 (12 years ago)
Launch vehicle
DNEPR
Launch site
Orenburg, Russia (OREN)
Object type
Payload
Rocket body
Debris
Shape & HBR
Box, 1.0 m
Radar Cross Section
0.093 m², Small (<0.1 m²)

Expand to show TLE details & history
Last TLE update: 12 hours ago

TLE from 12 hours ago
0 LEMUR 1
1 40044U 14033AL  26119.37929063  .00002463  00000-0  28929-3 0  9999
2 40044  97.7809 270.2937 0047373 237.3112 122.3530 14.85028593638229
Epoch: 2026-04-29T09:06Z
TLE epoch observation values (Epoch: 2026-04-29T09:06:10.710Z)
Latitude
-0.00002°
Longitude
-83.59202°
Altitude
634.368 km
Speed
7.531 km/s
True Right ascension
18h 01m 10s
True Declination
0° 00' 00"
Sunlit
Object was in full shadow at epoch
Visualization orbit readout
Latitude
Unknown
Longitude
Unknown
Altitude
Unknown
Speed
Unknown
Apparent Right ascension
Unknown
Apparent Declination
Unknown
Sunlit
N/A
Visualization observer readout
Local Sidereal Time
04:40:09
Azimuth
Unknown
Elevation
Unknown
Doppler factor
Unknown
Orbital elements
Apogee altitude
643.632 km
Perigee altitude
577.417 km
Semi-major axis
6,988.662 km
Eccentricity
0.00474
Inclination
97.7809°
RAAN
270.2937°
Arg. of periapsis
237.3112°
True anomaly
122.81013°
Mean anomaly
122.353°
Eccentric anomaly
122.58171°
Mean motion
3.71494 °/min
Orbital period
96.91 mins
BSTAR
0.00028929
Loading maneuver chart data...
Computing Atmospheric mass density...
Loading historical data...
Loading historical data...
Loading historical data...
Loading historical data...
Loading historical data...
Loading historical data...
Loading historical data...

Documentation

Showing up to 5 results
|